OneWeb SL0304

operational
NORAD ID: 49092 Int'l Des: 2021-075 Owner: ONEWEBN Country: UK Constellation: oneweb
LEOCIRCULARPOLARONEWEB_TYPE

Über OneWeb SL0304

Beschreibung wird geladen...

Live-Position

3D-Globus wird geladen...

Nächste Überflüge

Höhenverlauf

Altitude vs Time

uPlot chart will show altitude changes over time

Zweizeiliger Elementsatz

1 49092U 21075T 25258.20346889 .00000056 00000-0 11151-3 0 9994
2 49092 87.9050 60.5585 0001869 94.3747 265.7599 13.17649777197363
Epoch: 15. Sept. 2025 • Age: 10 hours

Aktueller Status

Höhe 1216.8 km
Geschwindigkeit 7.24 km/s
Subsatellitenpunkt -56.44°S, 20.92°E
Startdatum 21. Aug. 2021
Alter 4 years
Typ internet

Technische Details

Klassifizierung Payload
Masse 148.00 kg
Trockenmasse 140.00 kg
Gesamtmasse 148.00 kg
Länge 1.30 m
Durchmesser 1.00 m
Spannweite 5.00 m
Form Trapezoid+2 pan
Hersteller ONEWUS
Bus-Typ ARROW
Phasenstatus In Orbit
Besitzer/Staat ONEWEBN/UK

Große Konstellationen

Loading constellations...